TimeCST,TemperatureF,Dew PointF,Humidity,Sea Level PressureIn,VisibilityMPH,Wind Direction,Wind SpeedMPH,Gust SpeedMPH,PrecipitationIn,Events,Conditions,WindDirDegrees,DateUTC
12:13 AM,5.0,1.4,85,30.00,10.0,NNE,4.6,-,N/A,Snow,Light Snow,20,2013-12-22 06:13:00
12:33 AM,5.0,1.4,85,30.00,10.0,NNE,5.8,-,N/A,Snow,Light Snow,30,2013-12-22 06:33:00
12:53 AM,5.0,1.4,85,29.99,10.0,NNE,4.6,-,N/A,Snow,Light Snow,20,2013-12-22 06:53:00
1:12 AM,3.2,-0.4,85,29.99,10.0,NNE,5.8,-,N/A,Snow,Light Snow,30,2013-12-22 07:12:00
1:33 AM,3.2,-0.4,85,29.99,10.0,NNE,8.1,-,N/A,Snow,Light Snow,20,2013-12-22 07:33:00
1:53 AM,3.2,-0.4,85,30.00,10.0,NNE,4.6,-,N/A,Snow,Light Snow,20,2013-12-22 07:53:00
2:12 AM,3.2,-0.4,85,30.00,2.5,NNE,4.6,-,N/A,Snow,Light Snow,30,2013-12-22 08:12:00
2:33 AM,3.2,-0.4,85,30.01,1.8,NNE,6.9,-,N/A,Snow,Light Snow,20,2013-12-22 08:33:00
2:53 AM,1.4,-2.2,85,30.02,3.0,NNE,5.8,-,N/A,Snow,Light Snow,30,2013-12-22 08:53:00
3:12 AM,1.4,-2.2,85,30.02,3.0,NE,5.8,-,N/A,Snow,Light Snow,50,2013-12-22 09:12:00
3:33 AM,1.4,-2.2,85,30.02,5.0,NNE,4.6,-,N/A,Snow,Light Snow,20,2013-12-22 09:33:00
3:53 AM,1.4,-2.2,85,30.02,4.0,NNE,5.8,-,N/A,Snow,Light Snow,20,2013-12-22 09:53:00
4:12 AM,1.4,-2.2,85,30.02,2.0,NNE,6.9,-,N/A,Snow,Light Snow,20,2013-12-22 10:12:00
4:33 AM,1.4,-2.2,85,30.02,7.0,NE,4.6,-,N/A,Snow,Light Snow,40,2013-12-22 10:33:00
4:53 AM,1.4,-4.0,78,30.02,7.0,NNE,8.1,-,N/A,Snow,Light Snow,30,2013-12-22 10:53:00
5:12 AM,1.4,-2.2,85,30.02,3.0,NNE,4.6,-,N/A,Snow,Light Snow,30,2013-12-22 11:12:00
5:33 AM,1.4,-4.0,78,30.03,3.0,NNE,3.5,-,N/A,Snow,Light Snow,30,2013-12-22 11:33:00
5:53 AM,1.4,-4.0,78,30.03,2.5,NE,5.8,-,N/A,Snow,Light Snow,40,2013-12-22 11:53:00
6:12 AM,1.4,-4.0,78,30.03,2.5,NNE,6.9,-,N/A,Snow,Light Snow,30,2013-12-22 12:12:00
6:33 AM,-0.4,-4.0,85,30.03,2.0,NE,4.6,-,N/A,Snow,Light Snow,40,2013-12-22 12:33:00
6:53 AM,-0.4,-4.0,85,30.03,3.0,NNE,6.9,-,N/A,Snow,Light Snow,30,2013-12-22 12:53:00
7:12 AM,-0.4,-4.0,85,30.04,4.0,NNE,6.9,-,N/A,Snow,Light Snow,30,2013-12-22 13:12:00
7:33 AM,-0.4,-4.0,85,30.03,4.0,NNE,3.5,-,N/A,Snow,Light Snow,30,2013-12-22 13:33:00
7:53 AM,-0.4,-4.0,85,30.04,4.0,NNE,3.5,-,N/A,Snow,Light Snow,30,2013-12-22 13:53:00
8:12 AM,-0.4,-5.8,78,30.04,7.0,NNE,6.9,-,N/A,Snow,Light Snow,30,2013-12-22 14:12:00
8:33 AM,-0.4,-5.8,78,30.04,7.0,NE,4.6,-,N/A,Snow,Light Snow,40,2013-12-22 14:33:00
8:52 AM,-0.4,-5.8,78,30.04,5.0,NE,3.5,-,N/A,Snow,Light Snow,50,2013-12-22 14:52:00
9:13 AM,-0.4,-5.8,78,30.04,3.0,NNE,4.6,-,N/A,Snow,Light Snow,30,2013-12-22 15:13:00
9:33 AM,-0.4,-5.8,78,30.04,2.5,NE,5.8,-,N/A,Snow,Light Snow,40,2013-12-22 15:33:00
9:52 AM,-0.4,-5.8,78,30.04,3.0,NNE,5.8,-,N/A,Snow,Light Snow,30,2013-12-22 15:52:00
10:13 AM,-0.4,-5.8,78,30.05,4.0,NNE,4.6,-,N/A,Snow,Light Snow,30,2013-12-22 16:13:00
10:32 AM,-0.4,-5.8,78,30.06,7.0,North,4.6,-,N/A,Snow,Light Snow,10,2013-12-22 16:32:00
10:53 AM,-0.4,-5.8,78,30.06,7.0,NE,5.8,-,N/A,Snow,Light Snow,40,2013-12-22 16:53:00
11:13 AM,-0.4,-5.8,78,30.05,2.0,NNE,4.6,-,N/A,Snow,Light Snow,30,2013-12-22 17:13:00
11:25 AM,-0.4,-5.8,78,30.05,1.5,NNE,3.5,-,N/A,Snow,Light Snow,20,2013-12-22 17:25:00
3:05 PM,1.4,-4.0,78,30.07,5.0,NNE,5.8,-,N/A,Snow,Light Snow,20,2013-12-22 21:05:00
3:12 PM,1.4,-4.0,78,30.07,7.0,NNE,5.8,-,N/A,Snow,Light Snow,30,2013-12-22 21:12:00
3:33 PM,1.4,-4.0,78,30.08,2.5,NNE,4.6,-,N/A,Snow,Light Snow,20,2013-12-22 21:33:00
3:53 PM,1.4,-2.2,85,30.09,2.5,NE,4.6,-,N/A,Snow,Light Snow,40,2013-12-22 21:53:00
4:13 PM,1.4,-4.0,78,30.09,1.8,NNE,6.9,-,N/A,Snow,Light Snow,20,2013-12-22 22:13:00
4:33 PM,-0.4,-4.0,85,30.10,7.0,NNE,4.6,-,N/A,Snow,Light Snow,20,2013-12-22 22:33:00
4:53 PM,-0.4,-4.0,85,30.11,3.0,North,3.5,-,N/A,Snow,Light Snow,360,2013-12-22 22:53:00
5:13 PM,-0.4,-5.8,78,30.12,5.0,NNE,4.6,-,N/A,Snow,Light Snow,20,2013-12-22 23:13:00
5:32 PM,-0.4,-5.8,78,30.13,3.0,NNE,3.5,-,N/A,Snow,Light Snow,20,2013-12-22 23:32:00
5:53 PM,-0.4,-5.8,78,30.13,2.5,Calm,Calm,-,N/A,Snow,Light Snow,0,2013-12-22 23:53:00
6:13 PM,-0.4,-5.8,78,30.14,2.5,Calm,Calm,-,N/A,Snow,Light Snow,0,2013-12-23 00:13:00
6:32 PM,-0.4,-5.8,78,30.14,3.0,North,4.6,-,N/A,Snow,Light Snow,10,2013-12-23 00:32:00
6:53 PM,-0.4,-5.8,78,30.15,2.0,North,3.5,-,N/A,Snow,Light Snow,360,2013-12-23 00:53:00
7:13 PM,-2.2,-5.8,85,30.15,1.8,North,5.8,-,0.01,Snow,Light Snow,10,2013-12-23 01:13:00
7:32 PM,-2.2,-5.8,85,30.15,2.5,Calm,Calm,-,0.01,Snow,Light Snow,0,2013-12-23 01:32:00
7:53 PM,-2.2,-5.8,85,30.16,2.0,Calm,Calm,-,0.01,Snow,Light Snow,0,2013-12-23 01:53:00
8:13 PM,-2.2,-7.6,78,30.15,2.5,NNE,5.8,-,N/A,Snow,Light Snow,20,2013-12-23 02:13:00
8:32 PM,-2.2,-7.6,78,30.16,2.5,NE,4.6,-,N/A,Snow,Light Snow,40,2013-12-23 02:32:00
8:53 PM,-4.0,-7.6,85,30.16,4.0,NE,3.5,-,N/A,Snow,Light Snow,40,2013-12-23 02:53:00
9:13 PM,-4.0,-7.6,85,30.16,3.0,NE,4.6,-,N/A,Snow,Light Snow,40,2013-12-23 03:13:00
9:32 PM,-4.0,-7.6,85,30.17,4.0,NNE,3.5,-,N/A,Snow,Light Snow,30,2013-12-23 03:32:00
9:53 PM,-4.0,-9.4,78,30.17,7.0,NE,5.8,-,N/A,Snow,Light Snow,40,2013-12-23 03:53:00
10:13 PM,-4.0,-9.4,78,30.17,3.0,NE,4.6,-,N/A,Snow,Light Snow,40,2013-12-23 04:13:00
10:32 PM,-4.0,-9.4,78,30.18,3.0,NE,4.6,-,N/A,Snow,Light Snow,40,2013-12-23 04:32:00
10:53 PM,-5.8,-9.4,84,30.18,4.0,NE,5.8,-,N/A,Snow,Light Snow,40,2013-12-23 04:53:00
11:13 PM,-5.8,-9.4,84,30.19,4.0,NNE,6.9,-,N/A,Snow,Light Snow,30,2013-12-23 05:13:00
11:33 PM,-5.8,-11.2,77,30.19,5.0,NNE,4.6,-,N/A,Snow,Light Snow,30,2013-12-23 05:33:00
11:53 PM,-5.8,-11.2,77,30.20,5.0,NNE,4.6,-,N/A,Snow,Light Snow,20,2013-12-23 05:53:00